• In Moldova, Republic
  • List of Countries
  • For 7 days
  • Water Temperature
  • Satellite Maps
  • Weather Map
  • Weather Widgets
  • user-avatar
    Login

    Hourly Weather Shaki

    Today, 19 November, Sunday

    Time Temperature Precipitation Wind Pressure Humidity
    00:00 +10°C° 0 mm 1 mps 738 mmHg 57%
    01:00 +10°C° 0 mm 1 mps 738 mmHg 55%
    02:00 +10°C° 0 mm 1 mps 738 mmHg 54%
    03:00 +9°C° 0 mm 2 mps 737 mmHg 52%
    04:00 +10°C° 0 mm 1 mps 737 mmHg 51%
    05:00 +10°C° 0 mm 1 mps 737 mmHg 50%
    06:00 +10°C° 0 mm 1 mps 737 mmHg 49%
    07:00 +12°C° 0 mm 1 mps 737 mmHg 46%
    08:00 +13°C° 0 mm 1 mps 737 mmHg 43%
    09:00 +15°C° 0 mm 1 mps 737 mmHg 40%
    10:00 +16°C° 0 mm 1 mps 736 mmHg 37%
    11:00 +17°C° 0 mm 2 mps 736 mmHg 34%
    12:00 +18°C° 0 mm 2 mps 735 mmHg 32%
    13:00 +18°C° 0 mm 2 mps 735 mmHg 32%
    14:00 +18°C° 0 mm 2 mps 735 mmHg 31%
    15:00 +19°C° 0 mm 1 mps 734 mmHg 31%
    16:00 +18°C° 0 mm 1 mps 734 mmHg 34%
    17:00 +15°C° 0 mm 1 mps 734 mmHg 37%
    18:00 +14°C° 0 mm 1 mps 734 mmHg 40%
    19:00 +14°C° 0 mm 1 mps 734 mmHg 41%
    20:00 +13°C° 0 mm 1 mps 734 mmHg 42%
    21:00 +13°C° 0 mm 1 mps 734 mmHg 42%
    22:00 +13°C° 0 mm 1 mps 733 mmHg 42%
    23:00 +14°C° 0 mm 2 mps 733 mmHg 42%

    Tomorrow, 20 November, Monday

    Time Temperature Precipitation Wind Pressure Humidity
    00:00 +14°C° 0 mm 2 mps 733 mmHg 42%
    01:00 +14°C° 0 mm 2 mps 733 mmHg 43%
    02:00 +14°C° 0 mm 2 mps 733 mmHg 44%
    03:00 +13°C° 0 mm 3 mps 733 mmHg 45%
    04:00 +12°C° 0 mm 3 mps 733 mmHg 46%
    05:00 +12°C° 0 mm 3 mps 732 mmHg 46%
    06:00 +12°C° 0 mm 3 mps 732 mmHg 46%
    07:00 +13°C° 0 mm 3 mps 733 mmHg 43%
    08:00 +14°C° 0 mm 3 mps 733 mmHg 39%
    09:00 +17°C° 0 mm 3 mps 733 mmHg 36%
    10:00 +18°C° 0 mm 3 mps 732 mmHg 34%
    11:00 +19°C° 0 mm 4 mps 732 mmHg 31%
    12:00 +20°C° 0 mm 4 mps 732 mmHg 28%
    13:00 +20°C° 0 mm 4 mps 732 mmHg 28%
    14:00 +20°C° 0 mm 4 mps 731 mmHg 28%
    15:00 +20°C° 0 mm 4 mps 731 mmHg 29%
    16:00 +18°C° 0 mm 3 mps 731 mmHg 31%
    17:00 +17°C° 0 mm 3 mps 731 mmHg 34%
    18:00 +14°C° 0 mm 3 mps 732 mmHg 36%
    19:00 +14°C° 0 mm 3 mps 731 mmHg 38%
    20:00 +14°C° 0 mm 3 mps 731 mmHg 39%
    21:00 +14°C° 0 mm 3 mps 731 mmHg 40%
    22:00 +13°C° 0 mm 3 mps 731 mmHg 41%
    23:00 +14°C° 0 mm 2 mps 731 mmHg 41%

    Day after tomorrow, 21 November, Tuesday

    Time Temperature Precipitation Wind Pressure Humidity
    00:00 +14°C° 0 mm 2 mps 731 mmHg 42%
    01:00 +14°C° 0 mm 2 mps 731 mmHg 42%
    02:00 +12°C° 0 mm 3 mps 730 mmHg 43%
    03:00 +12°C° 0 mm 3 mps 730 mmHg 43%
    04:00 +12°C° 0 mm 3 mps 730 mmHg 43%
    05:00 +12°C° 0 mm 3 mps 730 mmHg 43%
    06:00 +12°C° 0 mm 3 mps 730 mmHg 43%
    07:00 +13°C° 0 mm 3 mps 730 mmHg 41%
    08:00 +14°C° 0 mm 3 mps 730 mmHg 38%
    09:00 +16°C° 0 mm 2 mps 729 mmHg 36%
    10:00 +18°C° 0 mm 3 mps 729 mmHg 33%
    11:00 +19°C° 0 mm 3 mps 729 mmHg 30%
    12:00 +20°C° 0 mm 3 mps 728 mmHg 27%
    13:00 +20°C° 0 mm 3 mps 728 mmHg 28%
    14:00 +20°C° 0 mm 3 mps 727 mmHg 28%
    15:00 +19°C° 0 mm 2 mps 727 mmHg 28%
    16:00 +18°C° 0 mm 3 mps 727 mmHg 31%
    17:00 +16°C° 0 mm 3 mps 727 mmHg 34%
    18:00 +14°C° 0 mm 3 mps 727 mmHg 36%
    19:00 +14°C° 0 mm 3 mps 727 mmHg 37%
    20:00 +14°C° 0 mm 3 mps 727 mmHg 37%
    21:00 +13°C° 0 mm 3 mps 727 mmHg 37%
    22:00 +14°C° 0 mm 2 mps 727 mmHg 38%
    23:00 +14°C° 0 mm 2 mps 727 mmHg 39%

    22 November, Wednesday

    Time Temperature Precipitation Wind Pressure Humidity
    00:00 +14°C° 0 mm 2 mps 727 mmHg 40%
    01:00 +14°C° 0 mm 2 mps 727 mmHg 41%
    02:00 +14°C° 0 mm 2 mps 727 mmHg 41%
    03:00 +13°C° 0 mm 2 mps 727 mmHg 42%
    04:00 +13°C° 0 mm 2 mps 727 mmHg 42%
    05:00 +13°C° 0 mm 2 mps 727 mmHg 42%
    06:00 +13°C° 0 mm 2 mps 727 mmHg 42%
    07:00 +14°C° 0 mm 2 mps 727 mmHg 41%
    08:00 +15°C° 0 mm 2 mps 728 mmHg 40%
    09:00 +15°C° 0 mm 2 mps 728 mmHg 38%
    10:00 +16°C° 0 mm 2 mps 728 mmHg 39%
    11:00 +16°C° 0 mm 3 mps 728 mmHg 39%
    12:00 +16°C° 0 mm 3 mps 729 mmHg 39%
    13:00 +15°C° 0.1 mm 4 mps 729 mmHg 43%
    14:00 +14°C° 0.1 mm 4 mps 729 mmHg 47%
    15:00 +13°C° 0.1 mm 5 mps 730 mmHg 52%
    16:00 +12°C° 0.3 mm 4 mps 730 mmHg 57%
    17:00 +11°C° 0.3 mm 4 mps 731 mmHg 61%
    18:00 +10°C° 0.3 mm 4 mps 731 mmHg 66%
    19:00 +10°C° 0.4 mm 3 mps 731 mmHg 68%
    20:00 +10°C° 0.4 mm 3 mps 732 mmHg 70%
    21:00 +9°C° 0.4 mm 3 mps 732 mmHg 72%
    22:00 +9°C° 0.2 mm 3 mps 732 mmHg 70%
    23:00 +9°C° 0.2 mm 3 mps 732 mmHg 69%

    23 November, Thursday

    Time Temperature Precipitation Wind Pressure Humidity
    00:00 +9°C° 0.2 mm 3 mps 732 mmHg 67%
    01:00 +8°C° 0 mm 3 mps 732 mmHg 66%
    02:00 +8°C° 0 mm 3 mps 732 mmHg 65%
    03:00 +8°C° 0 mm 3 mps 732 mmHg 63%
    04:00 +7°C° 0 mm 3 mps 732 mmHg 60%
    05:00 +6°C° 0 mm 4 mps 732 mmHg 57%
    06:00 +5°C° 0 mm 4 mps 733 mmHg 54%
    07:00 +6°C° 0 mm 4 mps 733 mmHg 49%
    08:00 +7°C° 0 mm 4 mps 733 mmHg 44%
    09:00 +8°C° 0 mm 4 mps 733 mmHg 39%
    10:00 +9°C° 0 mm 5 mps 733 mmHg 38%
    11:00 +10°C° 0 mm 6 mps 733 mmHg 37%
    12:00 +10°C° 0 mm 6 mps 734 mmHg 36%
    13:00 +10°C° 0 mm 6 mps 734 mmHg 36%
    14:00 +10°C° 0 mm 6 mps 734 mmHg 36%
    15:00 +9°C° 0 mm 6 mps 735 mmHg 36%
    16:00 +8°C° 0 mm 5 mps 736 mmHg 35%
    17:00 +8°C° 0 mm 4 mps 737 mmHg 35%
    18:00 +8°C° 0 mm 3 mps 737 mmHg 35%
    19:00 +7°C° 0 mm 3 mps 738 mmHg 37%
    20:00 +7°C° 0 mm 3 mps 739 mmHg 39%
    21:00 +7°C° 0 mm 3 mps 739 mmHg 41%
    22:00 +5°C° 0 mm 3 mps 739 mmHg 44%
    23:00 +6°C° 0 mm 2 mps 740 mmHg 48%

    24 November, Friday

    Time Temperature Precipitation Wind Pressure Humidity
    00:00 +5°C° 0 mm 2 mps 740 mmHg 51%
    01:00 +5°C° 0 mm 2 mps 740 mmHg 52%
    02:00 +4°C° 0 mm 2 mps 741 mmHg 54%
    03:00 +4°C° 0 mm 2 mps 741 mmHg 55%
    04:00 +4°C° 0 mm 2 mps 741 mmHg 55%
    05:00 +4°C° 0 mm 1 mps 742 mmHg 55%
    06:00 +4°C° 0 mm 1 mps 742 mmHg 54%
    07:00 +5°C° 0 mm 1 mps 743 mmHg 50%
    08:00 +6°C° 0 mm 1 mps 743 mmHg 46%
    09:00 +6°C° 0 mm 2 mps 743 mmHg 42%
    10:00 +7°C° 0 mm 2 mps 743 mmHg 41%
    11:00 +7°C° 0 mm 2 mps 743 mmHg 39%
    12:00 +8°C° 0 mm 2 mps 742 mmHg 38%
    13:00 +8°C° 0 mm 2 mps 742 mmHg 39%
    14:00 +8°C° 0 mm 2 mps 742 mmHg 39%
    15:00 +8°C° 0 mm 2 mps 742 mmHg 40%
    16:00 +7°C° 0 mm 2 mps 742 mmHg 43%
    17:00 +7°C° 0 mm 1 mps 743 mmHg 45%
    18:00 +6°C° 0 mm 1 mps 743 mmHg 48%
    19:00 +6°C° 0 mm 1 mps 743 mmHg 47%
    20:00 +6°C° 0 mm 1 mps 743 mmHg 47%
    21:00 +5°C° 0 mm 1 mps 743 mmHg 46%
    22:00 +5°C° 0 mm 1 mps 743 mmHg 45%
    23:00 +5°C° 0 mm 1 mps 743 mmHg 45%
    Show more